Starlink 11233

operational
NORAD ID: 61061 Int'l Des: 2024-164 Owner: SPXS Country: US Constellation: starlink
LEOCIRCULAR

About Starlink 11233

Description loading...

Live Position

Loading 3D Globe...

Upcoming Passes

Altitude History

Altitude vs Time

uPlot chart will show altitude changes over time

Two-Line Element Set

1 61061U 24164M 25258.83159667 .00002575 00000-0 26074-4 0 9990
2 61061 53.1586 93.3882 0000924 80.9052 279.2071 15.69736712 57957
Epoch: Sep 15, 2025 • Age: 23 hours

Current Status

Altitude 371.2 km
Velocity 7.69 km/s
Sub-Earth Point -35.18°S, 140.81°E
Launch Date Sep 13, 2024
Age 1 years
Type internet

Technical Details

Classification Payload
Mass 960.00 kg
Dry Mass 910.00 kg
Total Mass 960.00 kg
Length 0.30 m
Diameter 4.10 m
Span 29.00 m
Shape Box + pan
Manufacturer SPXS
Bus Type Starlink V2MD
Phase Status In Orbit
Owner/State SPXS/US

Large Constellations

Loading constellations...